Regional Weather Roundup
Issued by NWS

Home | Current Version | Previous Version | Graphics & Text | Print | Product List | Glossary On
Versions: 1 2 3 4 5 6 7 8 9 10 11 12 13 14 15 16 17 18 19 20 21 22 23 24 25 26 27 28 29 30 31 32 33 34 35 36 37 38 39 40 41 42 43 44 45 46 47 48 49 50
000
ASUS43 KLSX 100959
RWRMO

WEATHER SUMMARY FOR MISSOURI
NATIONAL WEATHER SERVICE SPRINGFIELD MO
500 AM CDT THU JUL 10 2014

NOTE: "FAIR" INDICATES FEW OR NO CLOUDS BELOW 12,000 FEET WITH NO
       SIGNIFICANT WEATHER AND/OR OBSTRUCTIONS TO VISIBILITY.
       CURRENT SKY AND/OR WEATHER CONDITIONS ARE NOT AVAILABLE FOR
       CHILLICOTHE AND FARMINGTON.

MOZ001>031-035>038-043-044-053-054-101100-
...NORTHERN AND WESTERN MISSOURI...

CITY           SKY/WX    TMP DP  RH WIND       PRES   REMARKS
KANSAS CTY INT PTCLDY    69  57  65 SE9       30.04R
KANSAS C DTWN  MOCLDY    72  57  59 SE6       30.03R
LEE`S SUMMIT   CLEAR     68  58  70 SE8       30.05R
ST JOSEPH      MOCLDY    69  59  70 SE7       30.03R
CHILLICOTHE      N/A     67  60  78 SE3       30.07R
KIRKSVILLE     PTCLDY    60  56  86 S3        30.08R

$$
MOZ066>068-077>081-088>096-101>105-101100-
...SOUTHWEST MISSOURI...

CITY           SKY/WX    TMP DP  RH WIND       PRES   REMARKS
SPRINGFIELD    CLEAR     65  59  81 SE5       30.05S
JOPLIN         MOCLDY    67  59  75 SE7       30.02F

$$
MOZ032>034-039>042-045>050-055>058-069>072-101100-
...CENTRAL MISSOURI...

CITY           SKY/WX    TMP DP  RH WIND       PRES   REMARKS
COLUMBIA       CLOUDY    63  59  87 E3        30.08R
JEFFERSON CITY CLEAR     62  60  93 CALM      30.06S
ROLLA            N/A    N/A N/A N/A MISG      30.07R
SEDALIA        MOCLDY    65  60  84 SE6       30.07S
OSAGE BEACH    PTCLDY    61  57  88 CALM      30.06F

$$
MOZ051-052-059>065-101100-
...EAST CENTRAL MISSOURI...

CITY           SKY/WX    TMP DP  RH WIND       PRES   REMARKS
ST LOUIS INTL  PTCLDY    66  59  78 CALM      30.07F
SPIRIT OF STL  PTCLDY    58  57  97 CALM      30.06S FOG
ST CHARLES     PTCLDY    61  59  93 CALM      30.06F

$$
MOZ072>076-082>087-097>100-106>115-101100-
...SOUTH CENTRAL AND SOUTHEAST MISSOURI...

CITY           SKY/WX    TMP DP  RH WIND       PRES   REMARKS
CAPE GIRARDEAU CLEAR     66  63  90 CALM      30.04S
FARMINGTON     CLEAR     61  57  88 CALM      30.09S
POPLAR BLUFF   CLEAR     65  61  87 N3        30.03F
WEST PLAINS    CLEAR     61  58  90 CALM      30.08F

$$



USA.gov is the U.S. government's official web portal to all federal, state and local government web resources and services.